Retour au catalogue

COSMOS 886 DEB

ActifLEO
NORAD 14502·DEBRIS·🇷🇺 Russia

Lancé Dec 27, 1976 depuis Baikonur Cosmodrome

Loading…

Prochains Passages (prochaines 24 heures)

TLE

FraisSource: Space-Track

Époque: Sep 14, 2026, 15:04 UTC

1 14502U 76126BP  26257.62827263  .00001187  00000-0  39464-3 0  9998
2 14502  65.7776 316.8087 0717089 359.3547 167.1740 13.49117876170138

Suivez COSMOS 886 DEB en temps réel avec AllMySat

Download on the App Store